TimeEST,TemperatureF,Dew PointF,Humidity,Sea Level PressureIn,VisibilityMPH,Wind Direction,Wind SpeedMPH,Gust SpeedMPH,PrecipitationIn,Events,Conditions,WindDirDegrees,DateUTC
12:53 AM,73.0,70.0,90,30.00,10.0,SSE,4.6,-,N/A,,Scattered Clouds,150,2012-12-29 05:53:00
1:53 AM,73.0,71.1,93,29.98,10.0,SSE,5.8,-,N/A,,Scattered Clouds,160,2012-12-29 06:53:00
2:53 AM,73.0,70.0,90,29.96,10.0,SSE,9.2,-,N/A,,Scattered Clouds,160,2012-12-29 07:53:00
3:53 AM,73.9,70.0,87,29.97,10.0,SSE,5.8,-,N/A,,Scattered Clouds,160,2012-12-29 08:53:00
4:53 AM,73.0,70.0,90,29.97,10.0,SSE,4.6,-,N/A,,Partly Cloudy,160,2012-12-29 09:53:00
5:53 AM,73.0,70.0,90,30.00,10.0,Variable,4.6,-,N/A,,Scattered Clouds,0,2012-12-29 10:53:00
6:53 AM,72.0,70.0,93,30.01,10.0,South,5.8,-,N/A,,Mostly Cloudy,180,2012-12-29 11:53:00
7:53 AM,73.0,71.1,93,30.03,10.0,South,4.6,-,N/A,,Mostly Cloudy,170,2012-12-29 12:53:00
8:53 AM,75.0,72.0,90,30.05,10.0,SSW,5.8,-,N/A,,Mostly Cloudy,200,2012-12-29 13:53:00
9:53 AM,78.1,72.0,81,30.06,10.0,South,10.4,17.3,N/A,,Overcast,190,2012-12-29 14:53:00
10:53 AM,80.1,72.0,76,30.05,10.0,SSW,11.5,-,N/A,,Mostly Cloudy,200,2012-12-29 15:53:00
11:53 AM,82.9,70.0,65,30.02,10.0,SW,12.7,-,N/A,,Mostly Cloudy,220,2012-12-29 16:53:00
12:53 PM,82.0,70.0,67,30.00,10.0,WSW,12.7,-,N/A,,Mostly Cloudy,240,2012-12-29 17:53:00
1:53 PM,82.9,70.0,65,29.98,10.0,WSW,12.7,20.7,N/A,,Mostly Cloudy,240,2012-12-29 18:53:00
2:53 PM,82.0,68.0,62,29.97,10.0,WSW,12.7,20.7,N/A,,Mostly Cloudy,240,2012-12-29 19:53:00
3:53 PM,81.0,68.0,65,29.97,10.0,WSW,10.4,-,N/A,,Mostly Cloudy,240,2012-12-29 20:53:00
4:53 PM,80.1,68.0,67,29.97,10.0,WSW,11.5,-,N/A,,Mostly Cloudy,240,2012-12-29 21:53:00
5:53 PM,78.1,68.0,71,29.99,10.0,WSW,9.2,-,N/A,,Mostly Cloudy,240,2012-12-29 22:53:00
6:32 PM,77.0,69.8,78,30.00,10.0,WSW,10.4,-,N/A,,Mostly Cloudy,240,2012-12-29 23:32:00
6:47 PM,77.0,69.8,78,30.01,10.0,WSW,11.5,-,N/A,,Mostly Cloudy,250,2012-12-29 23:47:00
6:53 PM,77.0,70.0,79,30.01,10.0,WSW,12.7,-,N/A,,Mostly Cloudy,240,2012-12-29 23:53:00
7:53 PM,75.0,70.0,84,30.03,10.0,WSW,8.1,-,N/A,,Scattered Clouds,250,2012-12-30 00:53:00
8:08 PM,75.2,69.8,83,30.04,10.0,WSW,9.2,-,N/A,,Overcast,250,2012-12-30 01:08:00
8:50 PM,73.4,69.8,88,30.06,10.0,West,8.1,-,N/A,,Mostly Cloudy,260,2012-12-30 01:50:00
8:53 PM,73.9,70.0,87,30.06,10.0,West,5.8,-,N/A,,Mostly Cloudy,260,2012-12-30 01:53:00
9:53 PM,72.0,66.0,81,30.08,10.0,West,8.1,18.4,N/A,,Scattered Clouds,280,2012-12-30 02:53:00
10:42 PM,69.8,62.6,78,30.10,10.0,WNW,10.4,17.3,N/A,,Mostly Cloudy,300,2012-12-30 03:42:00
10:53 PM,69.1,63.0,81,30.11,10.0,WNW,10.4,-,N/A,,Mostly Cloudy,300,2012-12-30 03:53:00
11:53 PM,64.9,50.0,58,30.12,10.0,NW,11.5,19.6,N/A,,Partly Cloudy,310,2012-12-30 04:53:00